Regional Weather Roundup
Issued by NWS Kansas City/Pleasant Hill, MO

Home | Current Version | Previous Version | Text Only | Print | Product List | Glossary On
Versions: 1 2 3 4 5 6 7 8 9 10 11 12 13 14 15 16 17 18 19 20 21 22 23 24 25 26 27
000
ASUS43 KEAX 232210
RWREAX

WEATHER ROUNDUP FOR EASTERN KANSAS AND NORTHWEST MISSOURI
NATIONAL WEATHER SERVICE KANSAS CITY/PLEASANT HILL MO
400 PM CST TUE JAN 23 2018

KSZ040-057-103>105-MOZ028-029-037-043-232300-
...KANSAS CITY METROPOLITAN AREA...

CITY           SKY/WX    TMP DP  RH WIND       PRES   REMARKS
K.C. INTL      PTSUNNY   34  25  69 NW9       30.20S WCI  27
K.C. DOWNTOWN  SUNNY     36  26  67 NW7       30.20S WCI  30
LEES SUMMIT    SUNNY     36  26  67 NW12G20   30.20R WCI  28
OLATHE - IXD   SUNNY     34  26  72 W8        30.22R WCI  27
OLATHE - OJC   SUNNY     33  26  75 W7        30.21R WCI  27
LAWRENCE       SUNNY     35  27  72 W8        30.22S WCI  29

$$

MOZ001>008-011>017-020>025-030>033-038>040-044>046-053-054-232300-
...NORTHERN AND CENTRAL MISSOURI...

CITY           SKY/WX    TMP DP  RH WIND       PRES   REMARKS
ST. JOSEPH     CLOUDY    31  26  82 W10       30.22R WCI  22
MOSBY          PTCLDY    34  27  75 NW8       30.21S WCI  27
WARRENSBURG    SUNNY     37  27  65 W9        30.21R WCI  31
WHITEMAN AFB   MOSUNNY   38  24  58 W10       30.15R WCI  31
CLINTON        SUNNY     37  27  65 W9        30.21S WCI  31
SEDALIA        SUNNY     38  29  70 W10       30.19R WCI  31
WARSAW         NOT AVBL
CHILLICOTHE      N/A     32  23  69 NW8       30.21R WCI  25
KIRKSVILLE     CLOUDY    30  25  81 W14G21    30.16R WCI  19

$$

MOZ041-047>049-056>058-063>065-088>090-097-232300-
...EASTERN AND SOUTHERN MISSOURI...

CITY           SKY/WX    TMP DP  RH WIND       PRES   REMARKS
ST. LOUIS INTL CLOUDY    36  28  73 W16G24    30.14R WCI  26
SPIRIT OF STL  CLOUDY    37  28  70 NW15G22   30.15R WCI  28
COLUMBIA       CLOUDY    34  26  72 W13G24    30.17R WCI  25
JEFFERSON CITY CLOUDY    36  27  69 NW13      30.19R WCI  27
ROLLA          CLOUDY    33  26  75 NW13      30.16R WCI  24
OSAGE BEACH    PTSUNNY   36  26  67 W9        30.20R WCI  29
SPRINGFIELD    SUNNY     40  28  62 W14       30.19R WCI  32
BRANSON        SUNNY     41  27  56 CALM      30.19R
JOPLIN         SUNNY     42  29  59 NW9       30.24R
WEST PLAINS    SUNNY     41  28  60 NW7G16    30.16R

$$

IAZ060-094-KSZ022-034>040-054-083-096-NEZ052-066-093-232300-
...KANSAS...SOUTHEAST NEBRASKA AND IOWA...

CITY           SKY/WX    TMP DP  RH WIND       PRES   REMARKS
TOPEKA         SUNNY     35  27  72 W8        30.22S WCI  29
MANHATTAN      SUNNY     40  27  59 W7        30.22S
EMPORIA        SUNNY     41  24  51 W8        30.21F
CHANUTE        SUNNY     44  23  43 NW6       30.23R
WICHITA        MOSUNNY   49  19  30 W9        30.22S
OMAHA          CLOUDY    26  21  81 W9        30.20R WCI  17
LINCOLN        SUNNY     29  22  75 W6        30.21R WCI  23
FALLS CITY     SUNNY     30  24  78 W8        30.20S WCI  22
LAMONI         CLOUDY    27  21  78 NW14      30.17R WCI  16
DES MOINES     CLOUDY    27  21  78 NW13      30.15S WCI  16

$$





USA.gov is the U.S. government's official web portal to all federal, state and local government web resources and services.